This is the latest recevied weather packets stored in our database for station/object EB5AGF-13. If no packets are shown the sender has not sent any weather packets the latest 10 day(s).
| Time | Temp. | Humidity | Pressure | Rain* | Wind** | Luminosity | Snow |
|---|---|---|---|---|---|---|---|
| 1777529613 | 15.56° C | 89% | 1012.8 hPa | 0 mm | 0 m/s | 55 W/m² | - |
| 1777529310 | 15.56° C | 90% | 1012.7 hPa | 0 mm | 0 m/s | 46 W/m² | - |
| 1777529006 | 15.56° C | 91% | 1012.7 hPa | 0 mm | 0 m/s | 39 W/m² | - |
| 1777528702 | 15° C | 91% | 1012.7 hPa | 0 mm | 0 m/s | 34 W/m² | - |
| 1777528398 | 15° C | 92% | 1012.8 hPa | 0 mm | 0 m/s | 29 W/m² | - |
| 1777528093 | 14.44° C | 92% | 1012.6 hPa | 0 mm | 0 m/s | 25 W/m² | - |
| 1777527791 | 14.44° C | 93% | 1012.5 hPa | 0 mm | 0 m/s | 21 W/m² | - |
| 1777527486 | 14.44° C | 93% | 1012.5 hPa | 0 mm | 0 m/s | 17 W/m² | - |
| 1777527183 | 13.89° C | 93% | 1012.5 hPa | 0 mm | 0 m/s | 13 W/m² | - |
| 1777526878 | 13.89° C | 93% | 1012.1 hPa | 0 mm | 0 m/s | 10 W/m² | - |
| 1777526574 | 13.89° C | 93% | 1012.3 hPa | 0 mm | 0 m/s | 7 W/m² | - |
| 1777526270 | 13.89° C | 93% | 1012.3 hPa | 0 mm | 0 m/s | 5 W/m² | - |
| 1777525966 | 13.89° C | 93% | 1012 hPa | 0 mm | 0 m/s | 3 W/m² | - |
| 1777525662 | 13.89° C | 93% | 1012.2 hPa | 0 mm | 0 m/s | 2 W/m² | - |
| 1777525358 | 13.33° C | 92% | 1011.9 hPa | 0 mm | 0 m/s | 1 W/m² | - |
| 1777525054 | 13.33° C | 92% | 1011.9 hPa | 0 mm | 0 m/s | 0 W/m² | - |
| 1777524753 | 13.89° C | 92% | 1012.1 hPa | 0 mm | 0 m/s | 0 W/m² | - |
| 1777524452 | 13.89° C | 92% | 1012 hPa | 0 mm | 0 m/s | 0 W/m² | - |
| 1777524153 | 13.89° C | 92% | 1011.8 hPa | 0 mm | 0 m/s | 0 W/m² | - |
| 1777523852 | 13.89° C | 91% | 1012 hPa | 0 mm | 0 m/s | 0 W/m² | - |
| 1777523553 | 13.89° C | 91% | 1011.9 hPa | 0 mm | 0 m/s | 0 W/m² | - |
| 1777523252 | 13.89° C | 91% | 1011.8 hPa | 0 mm | 0 m/s | 0 W/m² | - |
| 1777522952 | 14.44° C | 90% | 1011.6 hPa | 0 mm | 0 m/s | 0 W/m² | - |
| 1777522652 | 15° C | 90% | 1011.8 hPa | 0 mm | 0 m/s | 0 W/m² | - |
| 1777522350 | 15° C | 90% | 1011.7 hPa | 0 mm | 0 m/s | 0 W/m² | - |
* Rain latest hour (hover to see other rain measurements)
** Current wind speed in m/s (hover to see current wind gust speed)